Leesburg, VA

2:33 AM EDT on June 28, 2017 (GMT -0400)
Leesburg Executive

Weather History for KJYO - November, 2013

Change the Weather History Date:

Friday, November 8, 2013

  Actual Average (KIAD) Record (KIAD)
Temperature  
Mean Temperature 41 °F -  
Max Temperature 50 °F 57 °F 77 °F (1975)
Min Temperature 32 °F 34 °F 18 °F (1967)
Degree Days  
Heating Degree Days 24    
Moisture  
Dew Point 29 °F    
Average Humidity 61    
Maximum Humidity 93    
Minimum Humidity 40    
Precipitation  
Precipitation 0.00 in - - ()
Sea Level Pressure  
Sea Level Pressure 30.21 in    
Wind  
Wind Speed 7 mph (NW)    
Max Wind Speed 22 mph    
Max Gust Speed 30 mph    
Visibility 10 miles    
Events      
Averages and records for this station are not official NWS values.
T = Trace of Precipitation, MM = Missing Value Source: NWS Daily Summary

Daily Weather History Graph

Daily Weather History Graph

Search for Another Location

Airport or City:

Trip Planner

Search our weather history database for the weather conditions in past years. The results will help you decide how hot, cold, wet, or windy it might be!

Date:

Astronomy

Nov. 08, 2013 Rise Set
Actual Time 6:45 AM EST 5:01 PM EST
Civil Twilight 6:17 AM EST 5:29 PM EST
Nautical Twilight 5:45 AM EST 6:01 PM EST
Astronomical Twilight 5:14 AM EST 6:33 PM EST
Moon 11:39 AM EST (11/8) 10:20 PM EST (11/8)
Length of Visible Light 11h 12m
Length of Day
10h 16m
Waxing Crescent, 33% of the Moon is Illuminated
Nov 8
Waxing Crescent
Nov 10
First Quarter
Nov 17
Full
Nov 25
Last Quarter
Dec 2
New

Hourly Weather History & Observations

Time (EST) Temp. Windchill Dew Point Humidity Pressure Visibility Wind Dir Wind Speed Gust Speed Precip Events Conditions
12:15 AM 37.4 °F 33.8 °F 28.4 °F 70% 30.10 in 10.0 mi NW 4.6 mph - N/A   Scattered Clouds
12:35 AM 37.4 °F - 28.4 °F 70% 30.11 in 10.0 mi Calm Calm - N/A   Clear
12:55 AM 39.2 °F 37.0 °F 26.6 °F 61% 30.11 in 10.0 mi West 3.5 mph - N/A   Clear
1:15 AM 39.2 °F 37.0 °F 28.4 °F 65% 30.11 in 10.0 mi SW 3.5 mph - N/A   Mostly Cloudy
1:35 AM 37.4 °F 34.9 °F 28.4 °F 70% 30.11 in 10.0 mi SSW 3.5 mph - N/A   Scattered Clouds
1:55 AM 35.6 °F 31.7 °F 28.4 °F 75% 30.11 in 10.0 mi SSW 4.6 mph - N/A   Clear
2:15 AM 41.0 °F 34.7 °F 28.4 °F 61% 30.11 in 10.0 mi NW 10.4 mph - N/A   Clear
2:35 AM 42.8 °F - 28.4 °F 57% 30.10 in 10.0 mi Calm Calm - N/A   Clear
2:55 AM 41.0 °F 38.0 °F 28.4 °F 61% 30.10 in 10.0 mi West 4.6 mph - N/A   Clear
3:15 AM 41.0 °F 39.0 °F 28.4 °F 61% 30.10 in 10.0 mi West 3.5 mph - N/A   Clear
3:35 AM 41.0 °F 35.8 °F 30.2 °F 65% 30.10 in 10.0 mi WNW 8.1 mph - N/A   Clear
3:55 AM 42.8 °F 37.5 °F 30.2 °F 61% 30.11 in 10.0 mi WNW 9.2 mph 16.1 mph N/A   Clear
4:15 AM 41.0 °F 37.1 °F 30.2 °F 65% 30.11 in 10.0 mi West 5.8 mph - N/A   Clear
4:35 AM 41.0 °F 35.8 °F 28.4 °F 61% 30.11 in 10.0 mi West 8.1 mph - N/A   Clear
4:55 AM 39.2 °F 33.6 °F 28.4 °F 65% 30.12 in 10.0 mi West 8.1 mph - N/A   Clear
5:15 AM 37.4 °F 32.8 °F 28.4 °F 70% 30.12 in 10.0 mi West 5.8 mph - N/A   Clear
5:35 AM 37.4 °F 32.1 °F 28.4 °F 70% 30.12 in 10.0 mi West 6.9 mph - N/A   Clear
5:55 AM 37.4 °F 32.1 °F 28.4 °F 70% 30.13 in 10.0 mi West 6.9 mph - N/A   Clear
6:15 AM 37.4 °F 32.1 °F 30.2 °F 75% 30.14 in 10.0 mi WNW 6.9 mph - N/A   Clear
6:35 AM 37.4 °F 32.8 °F 30.2 °F 75% 30.14 in 10.0 mi West 5.8 mph - N/A   Clear
6:55 AM 41.0 °F - 28.4 °F 61% 30.15 in 10.0 mi Calm Calm - N/A   Clear
7:15 AM 41.0 °F 39.0 °F 30.2 °F 65% 30.16 in 10.0 mi WSW 3.5 mph - N/A   Clear
7:35 AM 41.0 °F - 30.2 °F 65% 30.18 in 10.0 mi Calm Calm - N/A   Clear
7:55 AM 42.8 °F - 30.2 °F 61% 30.18 in 10.0 mi Calm Calm - N/A   Clear
8:15 AM 44.6 °F 39.7 °F 32.0 °F 61% 30.19 in 10.0 mi WNW 9.2 mph - N/A   Clear
8:35 AM 44.6 °F 39.2 °F 32.0 °F 61% 30.19 in 10.0 mi NW 10.4 mph 21.9 mph N/A   Clear
8:55 AM 46.4 °F 41.5 °F 32.0 °F 57% 30.19 in 10.0 mi WNW 10.4 mph 19.6 mph N/A   Clear
9:15 AM 46.4 °F 41.5 °F 32.0 °F 57% 30.20 in 10.0 mi NNW 10.4 mph 23.0 mph N/A   Clear
9:35 AM 46.4 °F 40.4 °F 32.0 °F 57% 30.20 in 10.0 mi WNW 13.8 mph 19.6 mph N/A   Scattered Clouds
9:55 AM 46.4 °F 40.7 °F 32.0 °F 57% 30.20 in 10.0 mi NW 12.7 mph 21.9 mph N/A   Mostly Cloudy
10:15 AM 46.4 °F 40.1 °F 30.2 °F 53% 30.21 in 10.0 mi NW 15.0 mph 19.6 mph N/A   Overcast
10:35 AM 46.4 °F 40.7 °F 30.2 °F 53% 30.21 in 10.0 mi NNW 12.7 mph 17.3 mph N/A   Mostly Cloudy
10:55 AM 46.4 °F 41.5 °F 30.2 °F 53% 30.21 in 10.0 mi NW 10.4 mph 21.9 mph N/A   Overcast
11:15 AM 46.4 °F 39.8 °F 30.2 °F 53% 30.21 in 10.0 mi NNW 16.1 mph 21.9 mph N/A   Overcast
11:35 AM 46.4 °F 39.8 °F 28.4 °F 50% 30.22 in 10.0 mi NNW 16.1 mph 27.6 mph N/A   Overcast
11:55 AM 46.4 °F 40.1 °F 28.4 °F 50% 30.22 in 10.0 mi NW 15.0 mph 18.4 mph N/A   Overcast
12:15 PM 48.2 °F - 28.4 °F 46% 30.21 in 10.0 mi NW 11.5 mph 28.8 mph N/A   Overcast
12:35 PM 48.2 °F - 28.4 °F 46% 30.21 in 10.0 mi NW 11.5 mph 27.6 mph N/A   Mostly Cloudy
12:55 PM 50.0 °F - 28.4 °F 43% 30.21 in 10.0 mi NNW 21.9 mph 29.9 mph N/A   Mostly Cloudy
1:15 PM 50.0 °F - 26.6 °F 40% 30.21 in 10.0 mi North 20.7 mph 28.8 mph N/A   Overcast
1:35 PM 50.0 °F - 28.4 °F 43% 30.21 in 10.0 mi NNW 16.1 mph 21.9 mph N/A   Overcast
1:55 PM 48.2 °F - 26.6 °F 43% 30.21 in 10.0 mi NNW 12.7 mph 23.0 mph N/A   Mostly Cloudy
2:15 PM 48.2 °F - 26.6 °F 43% 30.21 in 10.0 mi NNW 13.8 mph 19.6 mph N/A   Mostly Cloudy
2:35 PM 48.2 °F - 26.6 °F 43% 30.22 in 10.0 mi NW 13.8 mph 19.6 mph N/A   Mostly Cloudy
2:55 PM 48.2 °F - 26.6 °F 43% 30.22 in 10.0 mi NNW 17.3 mph 23.0 mph N/A   Scattered Clouds
3:15 PM 46.4 °F 41.1 °F 26.6 °F 46% 30.22 in 10.0 mi NW 11.5 mph 21.9 mph N/A   Scattered Clouds
3:35 PM 50.0 °F - 26.6 °F 40% 30.23 in 10.0 mi NW 13.8 mph 20.7 mph N/A   Clear
3:55 PM 48.2 °F - 26.6 °F 43% 30.23 in 10.0 mi North 12.7 mph 18.4 mph N/A   Scattered Clouds
4:15 PM 46.4 °F 39.8 °F 26.6 °F 46% 30.24 in 10.0 mi NNW 16.1 mph 20.7 mph N/A   Clear
4:35 PM 46.4 °F 40.7 °F 26.6 °F 46% 30.25 in 10.0 mi NNW 12.7 mph 16.1 mph N/A   Clear
4:55 PM 46.4 °F 40.4 °F 26.6 °F 46% 30.25 in 10.0 mi NNW 13.8 mph 19.6 mph N/A   Clear
5:15 PM 44.6 °F 39.7 °F 26.6 °F 49% 30.25 in 10.0 mi NNW 9.2 mph - N/A   Clear
5:35 PM 44.6 °F 39.7 °F 26.6 °F 49% 30.26 in 10.0 mi NNW 9.2 mph - N/A   Clear
5:55 PM 42.8 °F 38.6 °F 26.6 °F 53% 30.27 in 10.0 mi North 6.9 mph - N/A   Clear
6:15 PM 42.8 °F 40.1 °F 26.6 °F 53% 30.28 in 10.0 mi North 4.6 mph - N/A   Clear
6:35 PM 41.0 °F - 28.4 °F 61% 30.28 in 10.0 mi Calm Calm - N/A   Clear
6:55 PM 41.0 °F - 28.4 °F 61% 30.29 in 10.0 mi Calm Calm - N/A   Clear
7:15 PM 39.2 °F 34.2 °F 28.4 °F 65% 30.29 in 10.0 mi NNW 6.9 mph - N/A   Clear
7:35 PM 37.4 °F 34.9 °F 28.4 °F 70% 30.30 in 10.0 mi North 3.5 mph - N/A   Clear
7:55 PM 35.6 °F - 28.4 °F 75% 30.30 in 10.0 mi Calm Calm - N/A   Clear
8:15 PM 37.4 °F - 28.4 °F 70% 30.30 in 10.0 mi Calm Calm - N/A   Clear
8:35 PM 33.8 °F 28.6 °F 28.4 °F 81% 30.31 in 10.0 mi NW 5.8 mph - N/A   Clear
8:55 PM 35.6 °F 31.7 °F 28.4 °F 75% 30.31 in 10.0 mi NNW 4.6 mph - N/A   Clear
9:15 PM 33.8 °F 29.6 °F 28.4 °F 81% 30.32 in 10.0 mi NW 4.6 mph - N/A   Clear
9:35 PM 32.0 °F 24.8 °F 28.4 °F 87% 30.31 in 10.0 mi NW 8.1 mph - N/A   Clear
9:55 PM 33.8 °F 30.8 °F 28.4 °F 81% 30.32 in 10.0 mi NW 3.5 mph - N/A   Clear
10:15 PM 33.8 °F - 28.4 °F 81% 30.32 in 10.0 mi Calm Calm - N/A   Clear
10:35 PM 33.8 °F 30.8 °F 28.4 °F 81% 30.32 in 10.0 mi South 3.5 mph - N/A   Clear
10:55 PM 33.8 °F 29.6 °F 28.4 °F 81% 30.32 in 10.0 mi WNW 4.6 mph - N/A   Clear
11:15 PM 32.0 °F - 28.4 °F 87% 30.32 in 10.0 mi Calm Calm - N/A   Clear
11:35 PM 32.0 °F - 30.2 °F 93% 30.33 in 10.0 mi Calm Calm - N/A   Clear
11:55 PM 32.0 °F 28.7 °F 28.4 °F 87% 30.33 in 10.0 mi SSW 3.5 mph - N/A   Clear